Weather History for Park Rapids, MN

Change the Weather History Date:

Tuesday, July 9, 2013

  Actual Average Record
Temperature  
Mean Temperature 70 °F -  
Max Temperature 80 °F 82 °F 94 °F (1974)
Min Temperature 59 °F 56 °F 41 °F (1977)
Cooling Degree Days 5    
Growing Degree Days 20 (Base 50)    
Moisture  
Dew Point 65 °F    
Average Humidity 79    
Maximum Humidity 97    
Minimum Humidity 58    
Precipitation  
Precipitation 0.13 in - - ()
Sea Level Pressure  
Sea Level Pressure 29.87 in    
Wind  
Wind Speed 9 mph (NW)    
Max Wind Speed 20 mph    
Max Gust Speed 28 mph    
Visibility 10 miles    
Events Rain    
Averages and records for this station are not official NWS values.
T = Trace of Precipitation, MM = Missing Value Source: NWS Daily Summary

Daily Weather History Graph

Daily Weather History Graph

Search for Another Location

Airport:

Trip Planner

Search our weather history database for the weather conditions in past years. The results will help you decide how hot, cold, wet, or windy it might be!

Date:

Astronomy

Jul. 09, 2013 Rise Set
Actual Time 5:35 AM CDT 9:15 PM CDT
Civil Twilight 4:56 AM CDT 9:53 PM CDT
Nautical Twilight 4:05 AM CDT 10:45 PM CDT
Astronomical Twilight 2:53 AM CDT 11:56 PM CDT
Moon 7:09 AM CDT (7/9) 9:42 PM CDT (7/9)
Length of Visible Light 16h 56m
Length of Day
15h 39m
New Moon, 2% of the Moon is Illuminated
Jul 9
New Moon
Jul 15
First Quarter
Jul 22
Full
Jul 29
Last Quarter
Aug 6
New

Hourly Weather History & Observations

Time (CDT) Temp. Heat Index Dew Point Humidity Pressure Visibility Wind Dir Wind Speed Gust Speed Precip Events Conditions
12:53 AM 70.0 °F - 63.0 °F 78% 29.94 in 10.0 mi SE 5.8 mph - N/A   Clear
1:53 AM 68.0 °F - 63.0 °F 84% 29.91 in 10.0 mi SE 4.6 mph - N/A   Clear
2:53 AM 66.9 °F - 62.1 °F 84% 29.91 in 10.0 mi SE 4.6 mph - N/A   Clear
3:53 AM 68.0 °F - 64.0 °F 87% 29.88 in 10.0 mi SSE 6.9 mph - N/A   Clear
4:53 AM 66.9 °F - 64.0 °F 90% 29.87 in 10.0 mi SE 3.5 mph - N/A   Clear
5:53 AM 66.9 °F - 64.0 °F 90% 29.85 in 10.0 mi SE 6.9 mph - N/A   Mostly Cloudy
6:53 AM 68.0 °F - 64.9 °F 90% 29.83 in 9.0 mi SE 3.5 mph - 0.01 in Rain Light Rain
7:53 AM 66.9 °F - 66.0 °F 97% 29.80 in 5.0 mi ESE 6.9 mph - 0.10 in Rain Light Rain
8:53 AM 68.0 °F - 66.0 °F 93% 29.82 in 9.0 mi SW 5.8 mph - 0.02 in Rain Light Rain
9:42 AM 71.6 °F - 68.0 °F 88% 29.80 in 8.0 mi West 4.6 mph - 0.00 in   Scattered Clouds
9:53 AM 72.0 °F - 69.1 °F 91% 29.79 in 8.0 mi WNW 8.1 mph - 0.00 in   Scattered Clouds
10:53 AM 73.9 °F - 68.0 °F 82% 29.81 in 10.0 mi NW 9.2 mph - N/A   Mostly Cloudy
11:03 AM 75.2 °F - 69.8 °F 83% 29.83 in 10.0 mi NW 9.2 mph - N/A   Overcast
11:14 AM 75.2 °F - 68.0 °F 78% 29.82 in 10.0 mi NW 9.2 mph - N/A   Mostly Cloudy
11:53 AM 75.0 °F - 69.1 °F 82% 29.83 in 10.0 mi NNW 8.1 mph - N/A   Overcast
12:32 PM 71.6 °F - 69.8 °F 94% 29.84 in 7.0 mi NNW 10.4 mph - 0.00 in Rain Light Rain
12:51 PM 73.4 °F - 69.8 °F 88% 29.84 in 10.0 mi NW 9.2 mph - 0.00 in   Overcast
12:53 PM 73.9 °F - 70.0 °F 87% 29.83 in 10.0 mi NNW 8.1 mph - 0.00 in   Overcast
1:51 PM 75.2 °F - 68.0 °F 78% 29.84 in 10.0 mi NNW 12.7 mph - N/A   Mostly Cloudy
1:53 PM 77.0 °F - 69.1 °F 76% 29.83 in 10.0 mi NW 16.1 mph 20.7 mph N/A   Mostly Cloudy
2:01 PM 78.8 °F - 68.0 °F 69% 29.84 in 10.0 mi NNW 13.8 mph 21.9 mph N/A   Scattered Clouds
2:36 PM 77.0 °F - 66.2 °F 69% 29.85 in 10.0 mi NW 17.3 mph 21.9 mph N/A   Mostly Cloudy
2:45 PM 78.8 °F - 66.2 °F 65% 29.85 in 10.0 mi NW 17.3 mph 23.0 mph N/A   Scattered Clouds
2:53 PM 78.1 °F - 66.0 °F 66% 29.84 in 10.0 mi NW 16.1 mph - N/A   Mostly Cloudy
3:53 PM 80.1 °F 81.7 °F 64.0 °F 58% 29.83 in 10.0 mi NW 17.3 mph 20.7 mph N/A   Partly Cloudy
4:53 PM 78.1 °F - 64.9 °F 64% 29.85 in 10.0 mi WNW 18.4 mph 27.6 mph N/A   Partly Cloudy
5:32 PM 75.2 °F - 64.4 °F 69% 29.87 in 10.0 mi NW 19.6 mph 25.3 mph N/A   Mostly Cloudy
5:44 PM 75.2 °F - 64.4 °F 69% 29.87 in 10.0 mi NW 17.3 mph - N/A   Overcast
5:53 PM 73.9 °F - 64.0 °F 71% 29.87 in 10.0 mi NW 19.6 mph 27.6 mph N/A   Overcast
6:31 PM 71.6 °F - 62.6 °F 73% 29.90 in 10.0 mi NW 16.1 mph 24.2 mph N/A   Overcast
6:53 PM 71.1 °F - 61.0 °F 70% 29.90 in 10.0 mi NW 13.8 mph 21.9 mph N/A   Overcast
7:53 PM 69.1 °F - 57.0 °F 65% 29.92 in 10.0 mi NNW 15.0 mph 24.2 mph N/A   Scattered Clouds
8:53 PM 64.9 °F - 55.9 °F 73% 29.94 in 10.0 mi NW 12.7 mph - N/A   Partly Cloudy
9:53 PM 62.1 °F - 55.0 °F 78% 29.97 in 10.0 mi NW 9.2 mph - N/A   Clear
10:53 PM 60.1 °F - 55.0 °F 83% 29.99 in 10.0 mi NW 10.4 mph - N/A   Mostly Cloudy
11:53 PM 59.0 °F - 54.0 °F 83% 29.99 in 10.0 mi NW 8.1 mph - N/A   Partly Cloudy